OZW9089 YPPH-YBLN

Flight info

Callsign OZW9089
Flight time 0h 24m
Altitude 16000
Route PH DCT OLMAM W20 BLN
Aircraft A20N/M-SDE2E3FGHIRWXY/LB1

Departure

Time 2026-04-27 11:25
Airport Perth International Airport (YPPH)

Arrival

Time 2026-04-27 11:50
Airport Busselton Margaret River Regional Airport (YBLN)
Time Latitude Longitude Altitude Speed Heading
2026-04-27 11:07 -31.94149 115.97010 63 ft 0 kts 13°
2026-04-27 11:12 -31.94152 115.97010 29 ft 2 kts 12°
2026-04-27 11:12 -31.94169 115.97007 56 ft 2 kts 11°
2026-04-27 11:13 -31.94184 115.97001 54 ft 2 kts 42°
2026-04-27 11:13 -31.94198 115.96992 59 ft 2 kts
2026-04-27 11:13 -31.94213 115.96998 58 ft 2 kts 308°
2026-04-27 11:13 -31.94221 115.97013 58 ft 1 kts 288°
2026-04-27 11:14 -31.94222 115.97016 60 ft 0 kts 287°
2026-04-27 11:18 -31.94221 115.97013 58 ft 2 kts 287°
2026-04-27 11:18 -31.94211 115.96973 57 ft 9 kts 284°
2026-04-27 11:19 -31.94194 115.96889 61 ft 13 kts 284°
2026-04-27 11:19 -31.94137 115.96830 61 ft 12 kts
2026-04-27 11:19 -31.94050 115.96850 58 ft 14 kts 13°
2026-04-27 11:19 -31.93941 115.96883 62 ft 18 kts 15°
2026-04-27 11:20 -31.93803 115.96924 58 ft 22 kts 13°
2026-04-27 11:20 -31.93657 115.96967 57 ft 22 kts 14°
2026-04-27 11:20 -31.93534 115.97002 58 ft 18 kts 14°
2026-04-27 11:20 -31.93413 115.97040 59 ft 20 kts 16°
2026-04-27 11:21 -31.93264 115.97082 56 ft 25 kts 11°
2026-04-27 11:21 -31.93119 115.97123 54 ft 20 kts 14°
2026-04-27 11:21 -31.92989 115.97157 52 ft 18 kts 359°
2026-04-27 11:21 -31.92930 115.97082 51 ft 0 kts 284°
2026-04-27 11:23 -31.92928 115.97073 50 ft 3 kts 283°
2026-04-27 11:24 -31.92918 115.97024 50 ft 9 kts 283°
2026-04-27 11:24 -31.92899 115.96926 51 ft 15 kts 283°
2026-04-27 11:24 -31.92947 115.96822 50 ft 18 kts 200°
2026-04-27 11:24 -31.93207 115.96747 49 ft 69 kts 193°
2026-04-27 11:25 -31.93605 115.96628 55 ft 108 kts 195°
2026-04-27 11:25 -31.94494 115.96371 64 ft 154 kts 193°
2026-04-27 11:25 -31.95594 115.96081 472 ft 161 kts 194°
2026-04-27 11:25 -31.96673 115.95796 1120 ft 159 kts 192°
2026-04-27 11:26 -31.97755 115.95505 1704 ft 161 kts 191°
2026-04-27 11:26 -31.98911 115.95187 2039 ft 181 kts 191°
2026-04-27 11:26 -32.00202 115.94836 2434 ft 200 kts 191°
2026-04-27 11:26 -32.01619 115.94436 2858 ft 220 kts 192°
2026-04-27 11:27 -32.03146 115.93992 3538 ft 234 kts 194°
2026-04-27 11:27 -32.04771 115.93493 4244 ft 251 kts 196°
2026-04-27 11:27 -32.06524 115.92931 4872 ft 271 kts 197°
2026-04-27 11:27 -32.08381 115.92347 5745 ft 278 kts 196°
2026-04-27 11:28 -32.10266 115.91766 6734 ft 282 kts 197°
2026-04-27 11:28 -32.12031 115.90789 7679 ft 281 kts 220°
2026-04-27 11:28 -32.13258 115.89023 8602 ft 280 kts 246°
2026-04-27 11:28 -32.13822 115.86824 9533 ft 282 kts 258°
2026-04-27 11:29 -32.14263 115.84550 10390 ft 289 kts 258°
2026-04-27 11:29 -32.14727 115.82150 10790 ft 311 kts 258°
2026-04-27 11:29 -32.15224 115.79576 11191 ft 330 kts 258°
2026-04-27 11:29 -32.15742 115.76910 11871 ft 336 kts 258°
2026-04-27 11:30 -32.16272 115.74213 12760 ft 338 kts 258°
2026-04-27 11:30 -32.16839 115.71509 13653 ft 341 kts 253°
2026-04-27 11:30 -32.17971 115.69039 14416 ft 350 kts 233°
2026-04-27 11:30 -32.19821 115.67125 15094 ft 361 kts 214°
2026-04-27 11:31 -32.22181 115.65983 15533 ft 373 kts 197°
2026-04-27 11:31 -32.24761 115.65530 15655 ft 376 kts 188°
2026-04-27 11:31 -32.27374 115.65291 15764 ft 377 kts 188°
2026-04-27 11:31 -32.29993 115.65016 15869 ft 378 kts 189°
2026-04-27 11:32 -32.32600 115.64658 15979 ft 378 kts 191°
2026-04-27 11:32 -32.35207 115.64235 16064 ft 378 kts 192°
2026-04-27 11:32 -32.37808 115.63778 16068 ft 378 kts 192°
2026-04-27 11:32 -32.40377 115.63312 16067 ft 378 kts 192°
2026-04-27 11:33 -32.42974 115.62836 16070 ft 378 kts 192°
2026-04-27 11:33 -32.45600 115.62355 16067 ft 377 kts 192°
2026-04-27 11:33 -32.48148 115.61890 16064 ft 369 kts 192°
2026-04-27 11:33 -32.50624 115.61442 16070 ft 352 kts 192°
2026-04-27 11:34 -32.53017 115.61009 16069 ft 335 kts 192°
2026-04-27 11:34 -32.55233 115.60606 16068 ft 320 kts 193°
2026-04-27 11:34 -32.57447 115.60198 16066 ft 325 kts 193°
2026-04-27 11:34 -32.59749 115.59768 16079 ft 343 kts 193°
2026-04-27 11:35 -32.62208 115.59306 16077 ft 370 kts 192°
2026-04-27 11:35 -32.64783 115.58831 16064 ft 378 kts 192°
2026-04-27 11:35 -32.67333 115.58372 16065 ft 362 kts 192°
2026-04-27 11:35 -32.69750 115.57939 16074 ft 354 kts 192°
2026-04-27 11:36 -32.72201 115.57491 16066 ft 359 kts 192°
2026-04-27 11:36 -32.74675 115.57037 16072 ft 358 kts 192°
2026-04-27 11:36 -32.77128 115.56586 16076 ft 358 kts 192°
2026-04-27 11:36 -32.79588 115.56135 16074 ft 358 kts 192°
2026-04-27 11:37 -32.82057 115.55681 16077 ft 359 kts 192°
2026-04-27 11:37 -32.84592 115.55211 16079 ft 377 kts 192°
2026-04-27 11:37 -32.87193 115.54732 16051 ft 376 kts 192°
2026-04-27 11:37 -32.89757 115.54268 15818 ft 373 kts 190°
2026-04-27 11:38 -32.92350 115.54026 15404 ft 371 kts 187°
2026-04-27 11:38 -32.94925 115.53830 14508 ft 373 kts 186°
2026-04-27 11:38 -32.97544 115.53631 13363 ft 380 kts 186°
2026-04-27 11:38 -33.00128 115.53436 12908 ft 363 kts 186°
2026-04-27 11:39 -33.02580 115.53254 12690 ft 342 kts 186°
2026-04-27 11:39 -33.04892 115.53081 12496 ft 323 kts 186°
2026-04-27 11:39 -33.07071 115.52915 12295 ft 306 kts 186°
2026-04-27 11:39 -33.09165 115.52753 11809 ft 300 kts 186°
2026-04-27 11:40 -33.11237 115.52590 11260 ft 297 kts 186°
2026-04-27 11:40 -33.13299 115.52428 10710 ft 295 kts 186°
2026-04-27 11:40 -33.15339 115.52268 10167 ft 293 kts 185°
2026-04-27 11:40 -33.17360 115.52112 9620 ft 290 kts 185°
2026-04-27 11:41 -33.19338 115.51959 9063 ft 287 kts 185°
2026-04-27 11:41 -33.21312 115.51806 8558 ft 282 kts 185°
2026-04-27 11:41 -33.23260 115.51655 8024 ft 279 kts 185°
2026-04-27 11:41 -33.25186 115.51506 7509 ft 276 kts 184°
2026-04-27 11:42 -33.27113 115.51356 7000 ft 272 kts 184°
2026-04-27 11:42 -33.28997 115.51212 6648 ft 270 kts 184°
2026-04-27 11:42 -33.30836 115.51070 6293 ft 268 kts 184°
2026-04-27 11:42 -33.32690 115.50927 5925 ft 266 kts 184°
2026-04-27 11:43 -33.34534 115.50785 5532 ft 266 kts 184°
2026-04-27 11:43 -33.36371 115.50643 5186 ft 263 kts 183°
2026-04-27 11:43 -33.38202 115.50501 4797 ft 263 kts 183°
2026-04-27 11:43 -33.40023 115.50360 4454 ft 261 kts 183°
2026-04-27 11:44 -33.41822 115.50220 4113 ft 258 kts 183°
2026-04-27 11:44 -33.43607 115.50082 3752 ft 256 kts 183°
2026-04-27 11:44 -33.45378 115.49946 3414 ft 254 kts 182°
2026-04-27 11:44 -33.47131 115.49811 3103 ft 251 kts 182°
2026-04-27 11:45 -33.48871 115.49677 2766 ft 249 kts 182°
2026-04-27 11:45 -33.50008 115.49589 2628 ft 244 kts 182°
2026-04-27 11:45 -33.52270 115.49348 2507 ft 243 kts 190°
2026-04-27 11:45 -33.53835 115.48743 2491 ft 227 kts 203°
2026-04-27 11:46 -33.55174 115.47957 2497 ft 200 kts 204°
2026-04-27 11:46 -33.56359 115.47451 2527 ft 162 kts 187°
2026-04-27 11:46 -33.57439 115.47449 2461 ft 153 kts 172°
2026-04-27 11:46 -33.58502 115.47598 2379 ft 157 kts 173°
2026-04-27 11:47 -33.59569 115.47725 2156 ft 148 kts 174°
2026-04-27 11:47 -33.60552 115.47825 1975 ft 137 kts 178°
2026-04-27 11:47 -33.61466 115.47685 1812 ft 131 kts 194°
2026-04-27 11:47 -33.62282 115.47242 1642 ft 132 kts 210°
2026-04-27 11:48 -33.62976 115.46527 1447 ft 133 kts 226°
2026-04-27 11:48 -33.63479 115.45593 1275 ft 135 kts 242°
2026-04-27 11:48 -33.63785 115.44535 1096 ft 134 kts 247°
2026-04-27 11:48 -33.64199 115.43556 916 ft 131 kts 232°
2026-04-27 11:49 -33.64809 115.42731 775 ft 133 kts 221°
2026-04-27 11:49 -33.65535 115.42046 605 ft 132 kts 211°
2026-04-27 11:49 -33.66361 115.41580 384 ft 132 kts 202°
2026-04-27 11:49 -33.67190 115.41103 197 ft 132 kts 206°
2026-04-27 11:50 -33.68014 115.40620 64 ft 130 kts 204°
2026-04-27 11:50 -33.68682 115.40242 59 ft 78 kts 205°
2026-04-27 11:50 -33.68964 115.40083 63 ft 11 kts 206°
2026-04-27 11:50 -33.68997 115.39997 60 ft 12 kts 296°
2026-04-27 11:51 -33.68982 115.39963 62 ft 13 kts 297°
2026-04-27 11:51 -33.68949 115.39880 62 ft 10 kts 295°
2026-04-27 11:51 -33.68884 115.39857 64 ft 6 kts 38°
2026-04-27 11:52 -33.68836 115.39892 60 ft 10 kts 25°
2026-04-27 11:52 -33.68765 115.39931 60 ft 13 kts 29°
2026-04-27 11:52 -33.68680 115.39982 61 ft 13 kts 25°
2026-04-27 11:52 -33.68601 115.40011 60 ft 10 kts 332°
2026-04-27 11:53 -33.68554 115.39980 59 ft 0 kts 336°